STARLINK-3093, 49141

Orbit data source: Space-Track

STARLINK-3093, 49141 is a payload satellite owned by SpaceX/Seattle (US) in LEO that was launched on Tue, 14 Sep 2021 UTC via an FALCON 9 launch vehicle from the Air Force Western Test Range (AFWTR). Payload-class satellites include a variety of spacecraft equipped with specific instruments for various scientific and technological missions. These include communications satellites like Starlink; space stations such as the ISS; scientific satellites like the Hubble; Earth observation satellites from companies like Planet Labs, Umbra, and HawkEye 360; GPS; miniature CubeSats for education and research; and military/defense satellites.

Loading next visibility...
Identifier
49141, 2021-082M
Orbit
LEO
Country
Flag of USUS
Related business
Manufacturer
SpaceX/Seattle
Mission
Operational Commercial Communications
Bus & Motor
STARLINK, Unknown motor
Mass
297 kg wet, ~275 kg dry
Launch date (UTC)
2021-09-14 (4 years ago)
Launch vehicle
FALCON 9
Launch site
Air Force Western Test Range (AFWTR)
Object type
Payload
Rocket body
Debris
Shape & HBR
Box + 1 Pan, 10.1 m
Radar Cross Section
13.562 m², Large (>1 m²)

Expand to show TLE details & history
Last TLE update: 9 hours ago

TLE from 9 hours ago
0 STARLINK-3093
1 49141U 21082M   25311.13847780  .00000691  00000-0  65707-4 0  9997
2 49141  69.9993 243.4580 0002698 268.5069  91.5781 14.98333344228828
Epoch: 2025-11-07T03:19Z
TLE epoch observation values (Epoch: 2025-11-07T03:19:24.481Z)
Latitude
-0.00005°
Longitude
147.01923°
Altitude
574.522 km
Speed
7.574 km/s
True Right ascension
16h 13m 49s
True Declination
0° 00' 00"
Sunlit
Object was in daylight at epoch
Visualization orbit readout
Latitude
Unknown
Longitude
Unknown
Altitude
Unknown
Speed
Unknown
Apparent Right ascension
Unknown
Apparent Declination
Unknown
Sunlit
N/A
Visualization observer readout
Local Sidereal Time
08:44:52
Azimuth
Unknown
Elevation
Unknown
Doppler factor
Unknown
Orbital elements
Apogee altitude
571.868 km
Perigee altitude
568.119 km
Semi-major axis
6,948.131 km
Eccentricity
0.00027
Inclination
69.9993°
RAAN
243.458°
Arg. of periapsis
268.5069°
True anomaly
91.609°
Mean anomaly
91.5781°
Eccentric anomaly
91.59355°
Mean motion
3.7475 °/min
Orbital period
96.06 mins
BSTAR
0.000065707
Loading maneuver chart data...
Computing Atmospheric mass density...
Loading historical data...
Loading historical data...
Loading historical data...
Loading historical data...
Loading historical data...
Loading historical data...
Loading historical data...

Documentation

Showing up to 5 results
|